Lid_Strength_Index
2 1 1 1 1 -0 -0 -1 -1 0 2 2 1 1 2 1 2 4 5 5 5 7 9 9 9 11 10 9 10 11 11 11 10 11 10 10 10 11 12 12 12 12 12 13 13 13 14 9 10 11 8 8 8 8
1 1 0 -0 -0 -1 -1 -1 0 2 2 2 2 1 2 1 2 3 6 5 6 6 9 9 9 9 9 9 9 10 9 10 8 9 10 10 11 11 11 12 11 12 10 10 10 10 10 8 9 8 8 8 8 8
0 -0 -0 -1 -1 -1 -1 -1 -0 2 2 3 2 2 2 1 2 3 6 6 6 8 9 9 10 8 8 8 8 9 8 8 9 8 8 9 10 9 11 11 11 10 10 10 11 9 10 9 8 8 8 8 8 8
-1 -1 -1 -1 -1 -1 -1 -0 1 1 2 3 3 2 2 2 2 3 6 6 6 7 9 10 8 9 8 8 8 8 8 8 7 6 7 8 9 9 9 10 10 9 10 10 10 9 10 9 8 8 8 8 8 8
-1 -1 -1 -1 -1 -1 -1 -0 1 1 2 1 2 2 2 2 2 4 5 6 6 7 9 10 9 9 8 8 8 8 7 7 7 8 8 8 8 9 9 10 10 9 9 10 11 9 8 9 8 8 8 9 8 8
-1 -1 -1 -1 -1 -1 -1 0 2 1 2 2 2 2 2 2 4 5 7 5 6 6 8 11 10 10 9 8 8 8 8 8 7 7 9 9 9 8 10 10 8 8 8 8 9 9 9 9 8 7 8 8 8 7
-1 -1 -1 -1 -1 -1 -1 1 2 2 2 2 3 2 3 3 4 7 8 7 6 6 8 12 11 10 11 9 9 8 8 8 7 8 9 9 9 9 10 11 8 9 8 9 8 9 10 9 9 8 8 8 7 7
-1 -1 -1 -1 -1 -1 -1 1 2 2 2 2 3 3 3 5 6 7 6 7 7 8 8 12 13 11 10 10 10 10 9 8 10 9 9 9 10 10 13 9 9 9 9 9 8 9 8 7 7 8 7 7 7 7
-1 -1 -1 -1 -1 -1 -0 1 2 2 2 2 3 4 6 6 8 7 7 8 8 8 10 11 12 13 10 11 10 10 10 10 10 10 10 10 10 13 10 9 9 9 10 9 9 9 9 8 8 8 7 7 8 7
-1 -1 -1 -1 -1 -1 1 2 2 2 3 2 5 9 10 8 6 7 8 10 9 10 10 12 11 13 11 11 12 11 11 11 12 12 11 12 12 9 9 9 9 9 9 9 10 11 10 9 8 8 8 7 7 7
-0 -0 -0 -1 -1 -1 1 2 2 3 3 7 10 11 8 5 8 10 12 11 11 12 12 12 12 13 11 12 12 12 12 13 13 13 13 13 13 11 11 10 9 9 8 8 9 8 8 7 8 8 8 8 7 7
-0 -0 -0 -0 -0 -1 1 3 3 4 6 8 8 7 8 10 11 12 13 14 14 13 14 13 13 11 12 11 12 13 14 14 15 13 14 15 11 12 12 11 10 9 9 9 9 9 8 8 8 8 7 7 7 6
-0 -0 -0 -0 -0 1 2 4 3 4 5 7 8 11 12 13 15 16 19 16 16 14 14 13 13 12 13 11 13 13 14 15 14 15 15 13 12 12 12 11 11 10 10 9 9 8 8 8 8 7 8 7 7 6
-0 -0 -0 -0 -0 2 4 3 4 5 7 10 13 16 14 16 15 14 14 14 13 13 13 12 14 12 13 13 14 14 16 14 17 17 16 12 12 12 12 11 11 11 10 10 9 8 8 9 9 8 7 6 6 6
-0 -0 -0 -0 -0 2 3 3 4 5 7 11 11 14 15 13 14 14 13 14 13 12 13 13 13 12 14 16 15 17 19 18 16 15 13 13 12 12 12 11 11 10 10 10 9 9 9 8 8 7 6 6 5 5
-0 -0 1 -0 0 2 2 3 5 7 10 11 13 15 15 14 15 14 14 14 12 12 12 11 14 15 16 15 17 17 16 17 13 13 13 13 12 12 12 11 11 10 10 9 9 9 9 9 8 7 6 6 5 5
0 2 0 -0 2 2 4 6 8 12 12 13 13 13 13 13 13 13 13 13 11 13 14 13 15 15 16 17 17 16 16 13 13 13 13 12 12 12 11 11 11 11 10 9 9 9 9 9 7 7 7 5 5 4
2 1 0 0 4 5 8 10 12 12 13 13 14 14 14 13 13 13 13 12 12 14 13 13 15 17 16 16 17 14 14 14 13 13 13 12 12 11 11 11 10 10 9 9 9 9 9 8 7 6 6 5 5 4
1 0 1 3 6 10 12 12 11 14 14 13 13 13 13 13 12 12 12 13 13 13 14 14 14 14 15 14 13 14 13 14 14 13 13 12 11 11 11 11 10 10 9 9 9 9 8 8 6 6 5 5 4 4
0 0 2 4 5 10 12 12 10 12 14 13 13 14 13 13 12 12 14 14 13 13 13 14 13 13 13 13 12 12 12 12 13 13 14 13 12 11 11 10 10 10 9 9 9 10 8 7 6 6 5 5 5 5
2 3 3 6 9 9 10 12 12 11 12 13 13 13 14 13 14 14 14 13 13 13 13 13 13 13 13 13 12 12 13 12 12 12 12 12 12 11 11 10 10 9 9 9 9 9 8 7 6 6 5 5 5 6
3 3 9 7 11 11 11 10 11 11 12 13 13 13 14 15 15 14 13 13 13 13 12 13 13 13 14 14 13 12 12 11 11 11 11 11 12 12 11 10 10 10 9 9 9 8 7 7 6 6 6 6 6 6
5 7 9 10 11 12 13 10 12 11 14 14 13 15 15 15 14 13 14 13 12 12 12 12 13 13 13 13 12 12 11 11 12 11 11 11 11 10 10 10 10 10 10 10 9 8 7 7 7 7 7 7 7 7
5 10 11 11 12 14 12 13 12 13 13 15 15 17 16 15 14 14 15 14 13 12 12 13 13 14 14 13 13 13 12 11 11 12 11 11 11 11 10 10 10 9 9 9 8 8 8 7 7 7 8 8 8 8
10 12 12 14 12 14 14 14 14 14 15 15 16 17 16 15 16 16 16 15 14 13 12 12 12 12 13 13 12 12 12 11 11 11 12 11 11 12 11 11 10 9 9 9 9 8 8 7 7 7 8 8 9 9
13 12 12 13 14 14 14 16 15 14 14 16 16 15 15 16 17 17 16 14 13 12 12 12 12 12 12 11 12 12 12 11 11 11 11 11 10 10 11 11 11 11 9 7 8 8 8 8 7 8 8 8 8 8
14 14 13 12 12 13 14 13 12 14 15 17 16 17 16 17 17 16 14 13 13 11 10 10 11 11 11 12 12 11 11 11 11 11 10 11 10 9 9 10 10 8 8 7 7 7 8 8 7 8 8 8 8 8
12 12 15 14 13 12 13 13 14 15 15 15 15 17 16 16 15 14 14 13 14 12 11 11 10 10 11 12 12 12 12 12 12 12 12 11 11 10 10 9 9 8 7 7 7 7 7 7 7 7 8 8 8 7
13 12 12 15 13 13 13 14 14 13 13 14 15 16 15 15 15 15 15 15 14 13 14 14 14 13 13 12 12 12 12 11 12 13 12 12 12 11 10 9 8 7 7 7 7 7 6 6 6 7 7 7 7 7
12 11 13 14 15 15 15 14 14 14 14 14 14 14 14 15 15 15 15 14 14 13 13 13 14 13 13 13 14 13 11 10 10 10 11 12 10 10 9 9 8 8 7 7 7 7 6 6 6 7 8 8 8 8
11 12 14 15 16 15 14 13 13 13 14 14 13 14 15 15 14 14 15 15 14 13 14 14 13 13 12 12 12 13 13 12 12 11 10 10 10 9 9 8 8 8 8 8 8 8 7 8 8 8 9 9 9 9
12 13 14 16 15 13 12 14 14 15 14 14 15 14 15 14 16 15 16 15 14 13 13 13 13 13 11 11 11 10 10 10 11 11 11 10 10 9 8 9 8 8 8 8 8 7 7 8 8 9 9 10 9 9
13 13 13 14 14 15 14 14 15 15 16 16 16 16 16 15 16 16 16 16 14 13 13 13 12 12 12 11 11 11 11 11 10 10 9 9 9 8 8 8 8 7 8 8 7 8 8 9 9 9 9 9 9 9